Location: Orange Harbor Mobile Home Park
(26.6923°N, 81.7937°W)
Time: 10:42:43
(UTC+00:00)

Cosmos 1943 - Pass Details

Date: 19 September 2020
Orbit: 833 x 850 km, 71.0° (Epoch: 29 October)

Event Time Altitude Azimuth Distance (km) Brightness Sun altitude
Rises 00:55:15 0° 341° (NNW) 3,395 6.8 -20.3°
Reaches altitude 10° 00:57:41 10° 342° (NNW) 2,460 6.0 -20.8°
Maximum altitude 01:03:21 87° 72° (ENE) 850 3.1 -22.0°
Enters shadow 01:06:15 30° 160° (SSE) 1,461 4.1 -22.7°
